Tracking 28915 objects as of 29-May-2024
HD Live streaming from Space Station
objects crossing your sky now

OBJECT B

Track OBJECT B now!
10-day predictions


NORAD ID: 56847
Int'l Code: 2023-081B
Perigee: 510.1 km
Apogee: 511.5 km
Inclination: 97.4 °
Period: 94.7 minutes
Semi major axis: 6881 km
RCS: Unknown
Launch date: June 7, 2023
Source: (TBD)
Launch site: Jiuquan Satellite Launch Center, China (JSC)
Your satellite tracking list
Your tracking list is empty




NASA's NSSDC Master Catalog

Two Line Element Set (TLE):
1 56847U 23081B   24150.56270944  .00014437  00000-0  65874-3 0  9995
2 56847  97.3766 222.9149 0001062 136.1022 224.0299 15.20719206 54272
Source of the keplerian elements: AFSPC